AirNav   Air Wisconsin pilot careers
 
 804 users online  

TN93 Gateway Medical Center Heliport
Clarksville, Tennessee, USA

GOING TO CLARKSVILLE?


FAA INFORMATION EFFECTIVE 26 APRIL 2018

Location

FAA Identifier: TN93
Lat/Long: 36-34-50.2800N / 087-16-09.8000W
36-34.838000N / 087-16.163333W
36.5806333 / -87.2693889
(estimated)
Elevation: 516 ft. / 157 m (estimated)
Variation: 03W (2010)
From city: 5 miles NE of CLARKSVILLE, TN
Time zone: UTC -5 (UTC -6 during Standard Time)
Zip code: 37040

Heliport Operations

Heliport use: Private use. Permission required prior to landing
Activation date: 09/2011
Control tower: no
ARTCC: MEMPHIS CENTER
FSS: JACKSON FLIGHT SERVICE STATION
NOTAMs facility: FDC (NOTAM-D service not available)
Attendance: UNATNDD
Wind indicator: lighted
Segmented circle: no
Lights: SS-SR

Heliport Communications

WX ASOS at CKV (7 nm W): 134.575 (931-431-3045)
WX AWOS-3 at EOD (10 nm W): PHONE 270-956-3100
WX AWOS-3 at M91 (17 nm E): 120.675 (615-384-8206)
WX AWOS-3 at HVC (19 nm NW): 132.575 (270-886-6311)

Nearby radio navigation aids

VOR radial/distance  VOR name  Freq  Var
CKVr111/7.3CLARKSVILLE VOR/DME110.6001W
BNAr315/38.8NASHVILLE VORTAC114.1002W

 
NDB name  Hdg/Dist  Freq  Var  ID
SNUFF061/6.533501WCK -.-. -.-
AIRBE144/11.727301WFK ..-. -.-
DICKSON017/28.320301WDMZ -.. -- --..

Heliport Services

Runway Information

Helipad H1

Dimensions: 40 x 40 ft. / 12 x 12 m
Surface: concrete, in good condition
Runway edge lights: PERI
PERI & FLD LGTS.
Latitude: 36-34.838000N
Longitude: 087-16.163333W
Elevation: 516.0 ft.
Traffic pattern: leftleft
Markings: basic, in good condition

Heliport Ownership and Management from official FAA records

Ownership: Privately-owned
Owner: GATEWAY MEDICAL CENTER
651 DUNLOP LANE
CLARKSVILLE, TN 37040
Phone 931-502-1000
Manager: MIKE HOLZKAMPER
651 DUNLOP LANE
CLARKSVILLE, TN 37040
Phone 931-502-1900
FAX# 931-502-1905

Instrument Procedures

There are no published instrument procedures at TN93.

Some nearby airports with instrument procedures:

KCKV - Outlaw Field Airport (7 nm W)
KEOD - Sabre Army Airfield (Fort Campbell) (10 nm W)
KHOP - Campbell Army Airfield (Fort Campbell) (12 nm NW)
M91 - Springfield Robertson County Airport (17 nm E)
KHVC - Hopkinsville-Christian County Airport (19 nm NW)
 
Loc | Ops | Rwys | IFR | FBO | Links
Com | Nav | Svcs | Stats | Notes

AirNav Hotels Sweepstakes
 
Aerial photo
No photo
 
Airport distance calculator
Flying to Gateway Medical Center Heliport? Find the distance to fly.

From to TN93

Sunrise and sunset
Times for 26-Apr-2018
 Local
(UTC-5)
 Zulu
(UTC)
Morning civil twilight05:3510:35
Sunrise06:0211:02
Sunset19:3200:32
Evening civil twilight19:5900:59

Current date and time
Zulu (UTC)  27-Apr-2018 02:52:49
Local (UTC-5)  26-Apr-2018 21:52:49
 
METAR
KCKV 
7nm W 
270152Z AUTO 21003KT 10SM CLR 12/10 A2989 RMK AO2 SLP121 T01220100
KEOD 
10nm W 
270158Z AUTO 00000KT 9SM CLR 11/10 A2989 RMK AO2 SLP124 T01100104
KHOP 
12nm NW 
270156Z AUTO 23003KT 10SM CLR 13/12 A2989 RMK AO2 DZB47E54RAB54 SLP123 P0000 T01260123
KM91 
17nm E 
270235Z AUTO 00000KT 1 3/4SM BR BKN055 OVC080 12/12 A2990 RMK A01
TAF
KCKV 
7nm W 
262112Z 2621/2718 32005KT P6SM VCSH SCT020 BKN060 OVC110 FM270300 VRB03KT 6SM BR BKN100 FM271300 30008KT P6SM SCT100
KHOP 
12nm NW 
270000Z 2700/2806 30006KT 9999 SCT150 QNH2981INS BECMG 2705/2706 28006KT 9999 SCT060 QNH2984INS BECMG 2717/2718 28010G15KT 9999 FEW030 QNH2986INS BECMG 2801/2802 28006KT 9999 SCT030 QNH2990INS TX20/2720Z TN06/2711Z
NOTAMs
Click for the latest NOTAMs
NOTAMs are issued by the DoD/FAA and will open in a separate window not controlled by AirNav.

 

 
 

Would you like to see your business listed on this page?

 If your business provides an interesting product or service to pilots, flight crews, aircraft, or users of the Gateway Medical Center Heliport, you should consider listing it here.  To start the listing process, click on the button below
 
Add a business
 

Other Pages about Gateway Medical Center Heliport

Update a link
 
Copyright © AirNav, LLC. All rights reserved. Privacy Policy  Contact